This is the latest recevied weather packets stored in our database for station/object K6TTR. If no packets are shown the sender has not sent any weather packets the latest 10 day(s).
| Time | Temp. | Humidity | Pressure | Rain* | Wind** | Luminosity | Snow |
|---|---|---|---|---|---|---|---|
| 1777933126 | 12.22° C | 77% | 1012.2 hPa | 0 mm | - | 76 W/m² | - |
| 1777932812 | 12.78° C | 75% | 1012.3 hPa | 0 mm | - | 58 W/m² | - |
| 1777932517 | 12.78° C | 73% | 1012.5 hPa | 0 mm | - | 51 W/m² | - |
| 1777932223 | 12.78° C | 73% | 1012.4 hPa | 0 mm | - | 69 W/m² | - |
| 1777931929 | 13.33° C | 72% | 1012.5 hPa | 0 mm | - | 81 W/m² | - |
| 1777931614 | 13.33° C | 71% | 1012.2 hPa | 0 mm | - | 104 W/m² | - |
| 1777931320 | 13.33° C | 71% | 1012.9 hPa | 0 mm | - | 130 W/m² | - |
| 1777931025 | 13.33° C | 71% | 1012.8 hPa | 0 mm | - | 185 W/m² | - |
| 1777930711 | 13.33° C | 72% | 1012.8 hPa | 0 mm | - | 200 W/m² | - |
| 1777930417 | 13.33° C | 71% | 1012.7 hPa | 0 mm | - | 192 W/m² | - |
| 1777930123 | 13.33° C | 72% | 1012.6 hPa | 0 mm | - | 195 W/m² | - |
| 1777929829 | 13.33° C | 72% | 1012.6 hPa | 0 mm | - | 206 W/m² | - |
| 1777929514 | 13.33° C | 71% | 1012.7 hPa | 0 mm | - | 171 W/m² | - |
| 1777929218 | 13.33° C | 70% | 1012.6 hPa | 0 mm | - | 146 W/m² | - |
| 1777928925 | 13.33° C | 71% | 1012.8 hPa | 0 mm | - | 167 W/m² | - |
| 1777928630 | 13.89° C | 68% | 1012.6 hPa | 0 mm | - | 197 W/m² | - |
| 1777928318 | 14.44° C | 68% | 1012.5 hPa | 0 mm | - | 253 W/m² | - |
| 1777928025 | 14.44° C | 67% | 1012.5 hPa | 0 mm | - | 420 W/m² | - |
| 1777927712 | 15° C | 66% | 1012.6 hPa | 0 mm | - | 346 W/m² | - |
| 1777927418 | 15° C | 65% | 1012.6 hPa | 0 mm | - | 1206 W/m² | - |
| 1777927121 | 15° C | 67% | 1012.7 hPa | 0 mm | - | 1041 W/m² | - |
| 1777926811 | 14.44° C | 67% | 1012.8 hPa | 0 mm | - | 1063 W/m² | - |
| 1777926514 | 14.44° C | 66% | 1012.9 hPa | 0 mm | - | 997 W/m² | - |
| 1777926220 | 14.44° C | 66% | 1012.9 hPa | 0 mm | - | 1009 W/m² | - |
| 1777925927 | 14.44° C | 66% | 1013.1 hPa | 0 mm | - | 1005 W/m² | - |
* Rain latest hour (hover to see other rain measurements)
** Current wind speed in m/s (hover to see current wind gust speed)